Location: Newark
(34.0131°N, 4.3314°W)
Time: 23:17:13
(UTC+00:00)

A-11 Canister half - Pass Details

Date: 26 October 2019
Orbit: 1514 x 1686 km, 47.2° (Epoch: 11 November)

Event Time Altitude Azimuth Distance (km) Brightness Sun altitude
Rises 09:52:00 0° 286° (WNW) 4,721 11.2 34.3°
Reaches altitude 10° 09:58:01 10° 257° (WSW) 3,699 10.9 35.1°
Maximum altitude 10:00:47 12° 239° (WSW) 3,557 11.0 35.4°
Drops below altitude 10° 10:03:32 10° 221° (SW) 3,673 11.2 35.8°
Sets 10:09:31 0° 191° (S) 4,639 12.0 36.5°
